Weather in Lenino

Russia / Lipetsk Oblast     52°31′27″N   39°29′42″E
temp.,
°C
wind,
m/s
gust,
m/s
humid.,
%
clouds,
%
prec.,
mm/h
press.,
hPa
HPBL,
m
15 may, sat
sat1500:00+18s41386100 0.1 1010319
03:00+16sse3693100 0.1 1010129
06:00+17s3596100 0.0 1010153
09:00+21ssw4673100 0.0 1011509
12:00+22ssw5759100 0.3 10121055
15:00+23ssw58505 0.3 10121472
18:00+21sw48630 0.0 1012560
21:00+16sw35784 0.0 101360
16 may, sun
sun1600:00+15ssw22825 0.0 101426
03:00+14ssw22864 0.0 101414
06:00+15sse22841 0.0 101555
09:00+21sse23630 0.0 1015463
12:00+24s24495 0.0 10152023
15:00+25sw134312 0.0 10142021
18:00+24nne1160100 0.0 101337
21:00+18ene227891 0.7 101419
17 may, mon
mon1700:00+17ne349189 1.0 101358
03:00+15ene358773 1.0 101377
06:00+15ene398411 0.0 1013201
09:00+22ese4862100 0.0 1013380
12:00+25se61047100 0.0 1012767
15:00+26ese712511 0.0 10101355
18:00+24se713595 0.0 1010714
21:00+20ese61766100 0.0 1009445
18 may, tue
tue1800:00+19se5155857 0.0 1009384
03:00+15se4106794 0.0 1008199
06:00+15se387798 0.0 1009205
09:00+21sse47695 0.0 1009592
12:00+25sse585696 0.0 10081351
15:00+24s4656100 0.1 10081620
18:00+22s4868100 0.5 1008345
21:00+17se3788100 1.5 1009169
19 may, wed
wed1900:00+17s3691100 0.3 1008176
03:00+15se3593100 0.4 1008114
06:00+15sse4109192 0.0 1007347
09:00+16s5992100 0.6 1008621
12:00+19ssw7106697 1.0 10081626
15:00+19sw796662 1.8 10091391
18:00+18wsw477230 0.3 1010861
21:00+14w2288100 0.4 101122